Location: Caltech
(34.1382°N, 118.1253°W)
Time: 01:26:03
(UTC-07:00)

UOSAT-12 - Visible Passes

Search period start: 02 October 2014 00:00
Search period end: 12 October 2014 00:00
Orbit: 594 x 664 km, 64.6° (Epoch: 01 October)

Date Brightness Start Highest point End Pass type
(mag) Time Alt. Az. Time Alt. Az. Time Alt. Az.
02 Oct 8.1 05:50:50 10° NNW 05:55:26 51° ENE 05:59:56 10° SE visible
02 Oct 7.8 19:58:34 10° S 20:02:04 34° SE 20:02:04 34° SE visible
02 Oct 10.1 21:39:20 10° WSW 21:39:33 11° W 21:39:33 11° W visible
03 Oct 10.1 04:32:54 10° NNE 04:35:19 14° NE 04:37:44 10° ENE visible
03 Oct 7.1 06:11:16 10° NW 06:15:56 67° WSW 06:20:30 10° SSE visible
03 Oct 7.0 20:18:31 10° SSW 20:23:07 89° ESE 20:24:11 54° NNE visible
04 Oct 9.1 04:52:08 10° N 04:56:12 28° NE 05:00:12 10° ESE visible
04 Oct 8.5 19:00:40 10° SSE 19:03:52 19° ESE 19:07:07 10° ENE visible
04 Oct 8.5 20:39:22 10° SW 20:43:41 39° NW 20:46:02 23° N visible
05 Oct 7.6 05:12:11 10° NNW 05:16:52 64° ENE 05:21:27 10° SE visible
05 Oct 7.4 19:19:44 10° S 19:24:06 45° ESE 19:28:34 10° NE visible
05 Oct 9.7 21:01:14 10° W 21:04:28 18° NW 21:07:31 11° N visible
06 Oct 9.8 03:56:02 16° NE 03:56:51 17° NE 03:59:51 10° E visible
06 Oct 7.2 05:33:30 15° NW 05:37:19 53° WSW 05:41:47 10° S visible
06 Oct 7.4 19:39:56 10° SW 19:44:31 73° WNW 19:49:13 10° NNE visible
07 Oct 8.7 04:18:12 33° ENE 04:18:12 33° ENE 04:21:54 10° ESE visible
07 Oct 8.3 05:55:41 17° WNW 05:57:34 22° WSW 06:01:05 10° SSW visible
07 Oct 8.9 20:01:01 10° WSW 20:05:08 31° NW 20:09:20 10° N visible
08 Oct 8.5 04:40:24 32° SE 04:40:24 32° SE 04:42:53 10° SSE visible
08 Oct 10.0 20:23:14 10° W 20:25:58 15° NW 20:28:45 10° NNW visible
09 Oct 9.4 05:02:30 13° S 05:02:30 13° S 05:02:59 10° S visible
09 Oct 7.8 19:01:23 10° SW 19:05:55 58° WNW 19:10:34 10° NNE visible
10 Oct 9.3 19:22:43 10° WSW 19:26:35 26° NW 19:30:32 10° N visible
11 Oct 10.0 19:45:25 10° WNW 19:47:29 13° NW 19:49:35 10° NNW visible
